When you browse on this site, cookies collect data to enhance your experience and personalize the content and advertising you see.
Visit our Privacy Policy to learn more. By continuing to use the site, you agree to this use of cookies and data.

Previsão horária em Abadiânia

Hoje, 28 Setembro, Segunda-feira

Tempo Temperatura Precipitação Vento Pressão Humidade
00:00 +24°C° 0 mm 1 m/s 675 mmHg 32%
01:00 +24°C° 0 mm 1 m/s 675 mmHg 33%
02:00 +23°C° 0 mm 1 m/s 675 mmHg 34%
03:00 +20°C° 0 mm 0 m/s 674 mmHg 37%
04:00 +20°C° 0 mm 0 m/s 674 mmHg 38%
05:00 +20°C° 0 mm 0 m/s 674 mmHg 38%
06:00 +20°C° 0 mm 0 m/s 674 mmHg 39%
07:00 +25°C° 0 mm 1 m/s 676 mmHg 34%
08:00 +28°C° 0 mm 1 m/s 677 mmHg 28%
09:00 +32°C° 0 mm 2 m/s 678 mmHg 22%
10:00 +34°C° 0 mm 2 m/s 678 mmHg 19%
11:00 +36°C° 0 mm 2 m/s 678 mmHg 17%
12:00 +37°C° 0 mm 2 m/s 678 mmHg 15%
13:00 +38°C° 0 mm 2 m/s 677 mmHg 14%
14:00 +38°C° 0 mm 2 m/s 677 mmHg 14%
15:00 +38°C° 0 mm 2 m/s 676 mmHg 13%
16:00 +36°C° 0 mm 2 m/s 675 mmHg 15%
17:00 +34°C° 0 mm 2 m/s 675 mmHg 17%
18:00 +31°C° 0 mm 2 m/s 674 mmHg 19%
19:00 +30°C° 0 mm 1 m/s 675 mmHg 20%
20:00 +29°C° 0 mm 1 m/s 675 mmHg 21%
21:00 +28°C° 0 mm 1 m/s 675 mmHg 21%
22:00 +27°C° 0 mm 1 m/s 675 mmHg 23%
23:00 +26°C° 0 mm 1 m/s 675 mmHg 25%

Amanhã, 29 Setembro, Terça-feira

Tempo Temperatura Precipitação Vento Pressão Humidade
00:00 +25°C° 0 mm 1 m/s 675 mmHg 27%
01:00 +25°C° 0 mm 1 m/s 675 mmHg 28%
02:00 +24°C° 0 mm 1 m/s 674 mmHg 29%
03:00 +22°C° 0 mm 0 m/s 674 mmHg 30%
04:00 +21°C° 0 mm 0 m/s 674 mmHg 31%
05:00 +23°C° 0 mm 1 m/s 675 mmHg 31%
06:00 +23°C° 0 mm 1 m/s 675 mmHg 32%
07:00 +26°C° 0 mm 2 m/s 676 mmHg 28%
08:00 +29°C° 0 mm 3 m/s 677 mmHg 24%
09:00 +33°C° 0 mm 4 m/s 678 mmHg 20%
10:00 +34°C° 0 mm 4 m/s 678 mmHg 17%
11:00 +36°C° 0 mm 4 m/s 678 mmHg 15%
12:00 +38°C° 0 mm 4 m/s 678 mmHg 13%
13:00 +38°C° 0 mm 4 m/s 677 mmHg 13%
14:00 +40°C° 0 mm 4 m/s 677 mmHg 12%
15:00 +40°C° 0 mm 4 m/s 676 mmHg 12%
16:00 +37°C° 0 mm 3 m/s 676 mmHg 14%
17:00 +35°C° 0 mm 2 m/s 675 mmHg 16%
18:00 +32°C° 0 mm 1 m/s 675 mmHg 18%
19:00 +30°C° 0 mm 1 m/s 675 mmHg 19%
20:00 +29°C° 0 mm 1 m/s 676 mmHg 20%
21:00 +28°C° 0 mm 1 m/s 676 mmHg 22%
22:00 +27°C° 0 mm 1 m/s 676 mmHg 23%
23:00 +26°C° 0 mm 1 m/s 676 mmHg 24%

Depois de amanhã, 30 Setembro, Quarta-feira

Tempo Temperatura Precipitação Vento Pressão Humidade
00:00 +26°C° 0 mm 1 m/s 676 mmHg 25%
01:00 +25°C° 0 mm 1 m/s 675 mmHg 25%
02:00 +25°C° 0 mm 1 m/s 675 mmHg 25%
03:00 +25°C° 0 mm 1 m/s 675 mmHg 26%
04:00 +24°C° 0 mm 2 m/s 675 mmHg 28%
05:00 +24°C° 0 mm 2 m/s 675 mmHg 29%
06:00 +22°C° 0 mm 3 m/s 676 mmHg 31%
07:00 +26°C° 0 mm 3 m/s 677 mmHg 30%
08:00 +29°C° 0 mm 4 m/s 678 mmHg 28%
09:00 +33°C° 0 mm 5 m/s 679 mmHg 26%
10:00 +34°C° 0 mm 5 m/s 679 mmHg 23%
11:00 +36°C° 0 mm 5 m/s 678 mmHg 20%
12:00 +39°C° 0 mm 5 m/s 678 mmHg 17%
13:00 +39°C° 0 mm 5 m/s 678 mmHg 17%
14:00 +39°C° 0 mm 5 m/s 677 mmHg 17%
15:00 +38°C° 0 mm 4 m/s 676 mmHg 17%
16:00 +36°C° 0 mm 4 m/s 676 mmHg 19%
17:00 +35°C° 0 mm 3 m/s 675 mmHg 21%
18:00 +32°C° 0 mm 2 m/s 675 mmHg 23%
19:00 +31°C° 0 mm 2 m/s 675 mmHg 26%
20:00 +30°C° 0 mm 2 m/s 676 mmHg 28%
21:00 +28°C° 0 mm 2 m/s 676 mmHg 31%
22:00 +28°C° 0 mm 2 m/s 676 mmHg 32%
23:00 +27°C° 0 mm 2 m/s 676 mmHg 34%

1 Outubro, Quinta-feira

Tempo Temperatura Precipitação Vento Pressão Humidade
00:00 +26°C° 0 mm 2 m/s 675 mmHg 36%
01:00 +26°C° 0 mm 2 m/s 675 mmHg 36%
02:00 +26°C° 0 mm 2 m/s 675 mmHg 37%
03:00 +25°C° 0 mm 2 m/s 675 mmHg 38%
04:00 +25°C° 0 mm 2 m/s 675 mmHg 40%
05:00 +24°C° 0 mm 2 m/s 675 mmHg 43%
06:00 +23°C° 0 mm 2 m/s 675 mmHg 45%
07:00 +26°C° 0 mm 3 m/s 676 mmHg 42%
08:00 +28°C° 0 mm 3 m/s 677 mmHg 39%
09:00 +30°C° 0 mm 4 m/s 678 mmHg 35%
10:00 +33°C° 0 mm 4 m/s 678 mmHg 31%
11:00 +34°C° 0 mm 5 m/s 678 mmHg 26%
12:00 +36°C° 0 mm 5 m/s 678 mmHg 21%
13:00 +36°C° 0 mm 5 m/s 677 mmHg 20%
14:00 +37°C° 0 mm 5 m/s 676 mmHg 20%
15:00 +37°C° 0 mm 4 m/s 675 mmHg 19%
16:00 +35°C° 0 mm 3 m/s 675 mmHg 21%
17:00 +34°C° 0 mm 3 m/s 675 mmHg 22%
18:00 +31°C° 0 mm 2 m/s 674 mmHg 24%
19:00 +30°C° 0 mm 2 m/s 675 mmHg 26%
20:00 +28°C° 0 mm 2 m/s 675 mmHg 27%
21:00 +27°C° 0 mm 2 m/s 675 mmHg 29%
22:00 +26°C° 0 mm 2 m/s 675 mmHg 29%
23:00 +25°C° 0 mm 2 m/s 675 mmHg 29%

2 Outubro, Sexta-feira

Tempo Temperatura Precipitação Vento Pressão Humidade
00:00 +25°C° 0 mm 2 m/s 675 mmHg 29%
01:00 +24°C° 0 mm 2 m/s 675 mmHg 30%
02:00 +24°C° 0 mm 1 m/s 675 mmHg 30%
03:00 +23°C° 0 mm 1 m/s 674 mmHg 30%
04:00 +23°C° 0 mm 1 m/s 674 mmHg 31%
05:00 +21°C° 0 mm 2 m/s 675 mmHg 32%
06:00 +21°C° 0 mm 2 m/s 675 mmHg 33%
07:00 +25°C° 0 mm 3 m/s 676 mmHg 29%
08:00 +28°C° 0 mm 3 m/s 677 mmHg 26%
09:00 +32°C° 0 mm 4 m/s 678 mmHg 23%
10:00 +34°C° 0 mm 3 m/s 678 mmHg 19%
11:00 +37°C° 0 mm 3 m/s 678 mmHg 16%
12:00 +39°C° 0 mm 2 m/s 678 mmHg 12%
13:00 +39°C° 0 mm 2 m/s 678 mmHg 12%
14:00 +39°C° 0 mm 2 m/s 677 mmHg 11%
15:00 +39°C° 0 mm 2 m/s 676 mmHg 11%
16:00 +37°C° 0 mm 2 m/s 676 mmHg 13%
17:00 +35°C° 0 mm 2 m/s 675 mmHg 15%
18:00 +32°C° 0 mm 1 m/s 675 mmHg 16%
19:00 +30°C° 0 mm 1 m/s 675 mmHg 18%
20:00 +29°C° 0 mm 1 m/s 675 mmHg 20%
21:00 +28°C° 0 mm 2 m/s 675 mmHg 22%
22:00 +27°C° 0 mm 2 m/s 675 mmHg 25%
23:00 +26°C° 0 mm 2 m/s 675 mmHg 27%

3 Outubro, Sábado

Tempo Temperatura Precipitação Vento Pressão Humidade
00:00 +26°C° 0 mm 2 m/s 675 mmHg 30%
01:00 +25°C° 0 mm 1 m/s 675 mmHg 31%
02:00 +25°C° 0 mm 1 m/s 675 mmHg 32%
03:00 +24°C° 0 mm 1 m/s 674 mmHg 34%
04:00 +24°C° 0 mm 1 m/s 674 mmHg 35%
05:00 +23°C° 0 mm 1 m/s 675 mmHg 36%
06:00 +23°C° 0 mm 2 m/s 675 mmHg 36%
07:00 +26°C° 0 mm 2 m/s 676 mmHg 31%
08:00 +29°C° 0 mm 3 m/s 677 mmHg 27%
09:00 +34°C° 0 mm 3 m/s 678 mmHg 22%
10:00 +35°C° 0 mm 4 m/s 678 mmHg 19%
11:00 +37°C° 0 mm 4 m/s 678 mmHg 17%
12:00 +40°C° 0 mm 5 m/s 678 mmHg 15%
13:00 +40°C° 0 mm 5 m/s 677 mmHg 14%
14:00 +40°C° 0 mm 5 m/s 676 mmHg 14%
15:00 +40°C° 0 mm 5 m/s 676 mmHg 13%
16:00 +38°C° 0 mm 4 m/s 675 mmHg 15%
17:00 +36°C° 0 mm 3 m/s 675 mmHg 16%
18:00 +34°C° 0 mm 3 m/s 675 mmHg 18%
19:00 +31°C° 0 mm 2 m/s 675 mmHg 20%
20:00 +30°C° 0 mm 2 m/s 675 mmHg 21%
21:00 +28°C° 0 mm 2 m/s 676 mmHg 22%
22:00 +28°C° 0 mm 2 m/s 676 mmHg 24%
23:00 +27°C° 0 mm 2 m/s 676 mmHg 26%
Mostrar mais